Regional Weather Roundup
Issued by NWS State College, PA

Home | Current Version | Previous Version | Graphics & Text | Print | Product List | Glossary Off
Versions: 1 2 3 4 5 6 7 8 9 10 11 12 13 14 15 16 17 18 19 20 21 22 23 24 25 26 27 28 29 30 31 32 33 34 35 36 37 38 39 40 41 42 43 44 45 46 47 48 49 50

000
ASUS41 KCTP 260203
RWRCTP

REGIONAL WEATHER ROUNDUP
NATIONAL WEATHER SERVICE STATE COLLEGE PA
1000 PM EDT THU AUG 25 2016

Note: "fair" indicates few or no clouds below 12,000 feet with no
significant weather and/or obstructions to visibility.

* = STATION THAT DOES NOT REPORT PRECIPITATION /E.G. RAIN...SNOW...ETC/
    THUNDER OR FOG.

PAZ002>004-007>009-013>016-020>023-029>032-260300-
WESTERN PENNSYLVANIA

CITY           SKY/WX    TMP DP  RH WIND       PRES   REMARKS
ERIE           CLOUDY    75  72  90 SW6       29.99R
MEADVILLE      CLOUDY    72  69  90 W5        30.03S
FRANKLIN*        N/A     72  68  88 CALM      30.05S
NEW CASTLE     CLOUDY    73  72  96 SW6       30.03R THUNDER
BEAVER COUNTY  NOT AVBL
BUTLER*        NOT AVBL
PITTSBURGH INT PTCLDY    81  72  74 SW9       30.02F
PITTSBURGH     CLEAR     80  73  79 SW9       30.03S
INDIANA*       MOCLDY    79  73  83 SW7       30.05F
LATROBE        MOCLDY    79  75  89 SW9       30.05R
WASHINGTON CO* CLEAR     79  72  78 SW3       30.05S
$$

PAZ004>006-010>012-017>019-024>028-033>037-041-042-045-046-049>053-260300-
CENTRAL PENNSYLVANIA

CITY           SKY/WX    TMP DP  RH WIND       PRES   REMARKS
BRADFORD       LGT RAIN  74  71  91 SW9       30.07R
DUBOIS         TSTM      72  68  87 W12       30.07R FOG
CLEARFIELD     CLOUDY    75  71  87 CALM      30.04S
JOHNSTOWN      PTCLDY    76  71  85 S10       30.09F
ALTOONA        CLEAR     74  70  87 SW6       30.06S
STATE COLLEGE  CLOUDY    75  70  83 SW5       30.03S
WILLIAMSPORT   MOCLDY    78  72  81 CALM      29.97S
SELINSGROVE    CLEAR     73  73 100 CALM      29.99F
FT INDIANTOWN  CLEAR     75  73  95 VRB1      30.02S
CAPITAL CITY   PTCLDY    83  71  67 SW6       30.00S
HARRISBURG     PTCLDY    81  76  84 S7        29.99F
YORK           CLEAR     80  72  76 S7        30.01F
$$

PAZ038>040-043-044-047-048-054-055-060>062-067>071-260300-
EASTERN PENNSYLVANIA

CITY           SKY/WX    TMP DP  RH WIND       PRES   REMARKS
SCRANTON       CLEAR     73  71  93 CALM      30.01F
MOUNT POCONO   CLEAR     70  69  97 SW6       30.08F
ALLENTOWN      CLEAR     76  70  82 SW5       30.02S
QUAKERTOWN*    CLEAR     75  72  88 CALM      30.04S
READING        CLEAR     78  71  79 S5        30.00F
LANCASTER      CLEAR     76  74  93 CALM      30.02S
COATESVILLE    CLEAR     75  72  88 CALM      30.06S
POTTSTOWN      CLEAR     77  72  84 CALM      30.04S
BLUE BELL      CLEAR     73  70  88 CALM      30.02F
DOYLESTOWN     CLEAR     78  72  81 S5        30.02F
WILLOW GROVE   NOT AVBL
NORTH PHILA    CLEAR     82  72  71 SW7       30.03F
PHILADELPHIA   PTCLDY    80  71  74 S8        30.03S
$$




USA.gov is the U.S. government's official web portal to all federal, state and local government web resources and services.